station,date_time,water_elev
363935089114401,05/03/2011 12:33,303.48
363935089114401,05/03/2011 12:34,303.47
363935089114401,05/03/2011 12:35,303.4
363935089114401,05/03/2011 12:36,303.48
363935089114401,05/03/2011 12:37,303.51
363935089114401,05/03/2011 12:38,303.51
363935089114401,05/03/2011 12:39,303.5
363935089114401,05/03/2011 12:40,303.5
363935089114401,05/03/2011 12:41,303.56
363935089114401,05/03/2011 12:42,303.53
363935089114401,05/03/2011 12:43,303.56
363935089114401,05/03/2011 12:44,303.56
363935089114401,05/03/2011 12:45,303.51
363935089114401,05/03/2011 12:46,303.54
363935089114401,05/03/2011 12:47,303.55
363935089114401,05/03/2011 12:48,303.58
363935089114401,05/03/2011 12:49,303.6
363935089114401,05/03/2011 12:50,303.61
363935089114401,05/03/2011 12:51,303.66
363935089114401,05/03/2011 12:52,303.61
363935089114401,05/03/2011 12:53,303.63
363935089114401,05/03/2011 12:54,303.58
363935089114401,05/03/2011 12:55,303.56
363935089114401,05/03/2011 12:56,303.63
363935089114401,05/03/2011 12:57,303.56
363935089114401,05/03/2011 12:58,303.65
363935089114401,05/03/2011 12:59,303.6
363935089114401,05/03/2011 13:00,303.68
363935089114401,05/03/2011 13:01,303.65
363935089114401,05/03/2011 13:02,303.61
363935089114401,05/03/2011 13:03,303.65
363935089114401,05/03/2011 13:04,303.66
363935089114401,05/03/2011 13:05,303.66
363935089114401,05/03/2011 13:06,303.66
363935089114401,05/03/2011 13:07,303.7
363935089114401,05/03/2011 13:08,303.69
363935089114401,05/03/2011 13:09,303.71
363935089114401,05/03/2011 13:10,303.75
363935089114401,05/03/2011 13:11,303.76
363935089114401,05/03/2011 13:12,303.64
363935089114401,05/03/2011 13:13,303.72
363935089114401,05/03/2011 13:14,303.69
363935089114401,05/03/2011 13:15,303.81
363935089114401,05/03/2011 13:16,303.63
363935089114401,05/03/2011 13:17,303.69
363935089114401,05/03/2011 13:18,303.82
363935089114401,05/03/2011 13:19,303.77
363935089114401,05/03/2011 13:20,303.68
363935089114401,05/03/2011 13:21,303.71
363935089114401,05/03/2011 13:22,303.71
363935089114401,05/03/2011 13:23,303.82
363935089114401,05/03/2011 13:24,303.74
363935089114401,05/03/2011 13:25,303.75
363935089114401,05/03/2011 13:26,303.78
363935089114401,05/03/2011 13:27,303.79
363935089114401,05/03/2011 13:28,303.73
363935089114401,05/03/2011 13:29,303.84
363935089114401,05/03/2011 13:30,303.83
363935089114401,05/03/2011 13:31,303.84
363935089114401,05/03/2011 13:32,303.81
363935089114401,05/03/2011 13:33,303.89
363935089114401,05/03/2011 13:34,303.81
363935089114401,05/03/2011 13:35,303.82
363935089114401,05/03/2011 13:36,303.86
363935089114401,05/03/2011 13:37,303.84
363935089114401,05/03/2011 13:38,303.8
363935089114401,05/03/2011 13:39,303.83
363935089114401,05/03/2011 13:40,303.8
363935089114401,05/03/2011 13:41,303.85
363935089114401,05/03/2011 13:42,303.93
363935089114401,05/03/2011 13:43,303.89
363935089114401,05/03/2011 13:44,303.93
363935089114401,05/03/2011 13:45,303.91
363935089114401,05/03/2011 13:46,303.91
363935089114401,05/03/2011 13:47,303.92
363935089114401,05/03/2011 13:48,303.94
363935089114401,05/03/2011 13:49,303.88
363935089114401,05/03/2011 13:50,303.88
363935089114401,05/03/2011 13:51,303.86
363935089114401,05/03/2011 13:52,303.94
363935089114401,05/03/2011 13:53,303.94
363935089114401,05/03/2011 13:54,303.98
363935089114401,05/03/2011 13:55,303.98
363935089114401,05/03/2011 13:56,303.94
363935089114401,05/03/2011 13:57,304
363935089114401,05/03/2011 13:58,304.02
363935089114401,05/03/2011 13:59,304.02
363935089114401,05/03/2011 14:00,303.99
363935089114401,05/03/2011 14:01,303.94
363935089114401,05/03/2011 14:02,304
363935089114401,05/03/2011 14:03,304
363935089114401,05/03/2011 14:04,304.02
363935089114401,05/03/2011 14:05,303.99
363935089114401,05/03/2011 14:06,304
363935089114401,05/03/2011 14:07,304.04
363935089114401,05/03/2011 14:08,304.02
363935089114401,05/03/2011 14:09,304.07
363935089114401,05/03/2011 14:10,304.07
363935089114401,05/03/2011 14:11,304.1
363935089114401,05/03/2011 14:12,304.07
363935089114401,05/03/2011 14:13,304.13
363935089114401,05/03/2011 14:14,304.04
363935089114401,05/03/2011 14:15,304.08
363935089114401,05/03/2011 14:16,304.12
363935089114401,05/03/2011 14:17,304.12
363935089114401,05/03/2011 14:18,304.11
363935089114401,05/03/2011 14:19,304.1
363935089114401,05/03/2011 14:20,304.12
363935089114401,05/03/2011 14:21,304.13
363935089114401,05/03/2011 14:22,304.14
363935089114401,05/03/2011 14:23,304.11
363935089114401,05/03/2011 14:24,304.16
363935089114401,05/03/2011 14:25,304.15
363935089114401,05/03/2011 14:26,304.15
363935089114401,05/03/2011 14:27,304.14
363935089114401,05/03/2011 14:28,304.15
363935089114401,05/03/2011 14:29,304.15
363935089114401,05/03/2011 14:30,304.18
363935089114401,05/03/2011 14:31,304.14
363935089114401,05/03/2011 14:32,304.18
363935089114401,05/03/2011 14:33,304.14
363935089114401,05/03/2011 14:34,304.2
363935089114401,05/03/2011 14:35,304.13
363935089114401,05/03/2011 14:36,304.18
363935089114401,05/03/2011 14:37,304.2
363935089114401,05/03/2011 14:38,304.19
363935089114401,05/03/2011 14:39,304.22
363935089114401,05/03/2011 14:40,304.2
363935089114401,05/03/2011 14:41,304.2
363935089114401,05/03/2011 14:42,304.2
363935089114401,05/03/2011 14:43,304.25
363935089114401,05/03/2011 14:44,304.2
363935089114401,05/03/2011 14:45,304.22
363935089114401,05/03/2011 14:46,304.28
363935089114401,05/03/2011 14:47,304.29
363935089114401,05/03/2011 14:48,304.28
363935089114401,05/03/2011 14:49,304.27
363935089114401,05/03/2011 14:50,304.28
363935089114401,05/03/2011 14:51,304.31
363935089114401,05/03/2011 14:52,304.31
363935089114401,05/03/2011 14:53,304.29
363935089114401,05/03/2011 14:54,304.33
363935089114401,05/03/2011 14:55,304.32
363935089114401,05/03/2011 14:56,304.31
363935089114401,05/03/2011 14:57,304.32
363935089114401,05/03/2011 14:58,304.32
363935089114401,05/03/2011 14:59,304.32
363935089114401,05/03/2011 15:00,304.33
363935089114401,05/03/2011 15:01,304.32
363935089114401,05/03/2011 15:02,304.35
363935089114401,05/03/2011 15:03,304.34
363935089114401,05/03/2011 15:04,304.34
363935089114401,05/03/2011 15:05,304.38
363935089114401,05/03/2011 15:06,304.38
363935089114401,05/03/2011 15:07,304.41
363935089114401,05/03/2011 15:08,304.39
363935089114401,05/03/2011 15:09,304.4
363935089114401,05/03/2011 15:10,304.4
363935089114401,05/03/2011 15:11,304.41
363935089114401,05/03/2011 15:12,304.38
363935089114401,05/03/2011 15:13,304.39
363935089114401,05/03/2011 15:14,304.42
363935089114401,05/03/2011 15:15,304.44
363935089114401,05/03/2011 15:16,304.43
363935089114401,05/03/2011 15:17,304.43
363935089114401,05/03/2011 15:18,304.4
363935089114401,05/03/2011 15:19,304.44
363935089114401,05/03/2011 15:20,304.41
363935089114401,05/03/2011 15:21,304.45
363935089114401,05/03/2011 15:22,304.46
363935089114401,05/03/2011 15:23,304.45
363935089114401,05/03/2011 15:24,304.48
363935089114401,05/03/2011 15:25,304.46
363935089114401,05/03/2011 15:26,304.46
363935089114401,05/03/2011 15:27,304.49
363935089114401,05/03/2011 15:28,304.49
363935089114401,05/03/2011 15:29,304.49
363935089114401,05/03/2011 15:30,304.5
363935089114401,05/03/2011 15:31,304.52
363935089114401,05/03/2011 15:32,304.51
363935089114401,05/03/2011 15:33,304.51
363935089114401,05/03/2011 15:34,304.52
363935089114401,05/03/2011 15:35,304.51
363935089114401,05/03/2011 15:36,304.51
363935089114401,05/03/2011 15:37,304.52
363935089114401,05/03/2011 15:38,304.52
363935089114401,05/03/2011 15:39,304.54
363935089114401,05/03/2011 15:40,304.56
363935089114401,05/03/2011 15:41,304.57
363935089114401,05/03/2011 15:42,304.54
363935089114401,05/03/2011 15:43,304.57
363935089114401,05/03/2011 15:44,304.57
363935089114401,05/03/2011 15:45,304.59
363935089114401,05/03/2011 15:46,304.56
363935089114401,05/03/2011 15:47,304.58
363935089114401,05/03/2011 15:48,304.57
363935089114401,05/03/2011 15:49,304.58
363935089114401,05/03/2011 15:50,304.59
363935089114401,05/03/2011 15:51,304.6
363935089114401,05/03/2011 15:52,304.6
363935089114401,05/03/2011 15:53,304.6
363935089114401,05/03/2011 15:54,304.62
363935089114401,05/03/2011 15:55,304.64
363935089114401,05/03/2011 15:56,304.62
363935089114401,05/03/2011 15:57,304.63
363935089114401,05/03/2011 15:58,304.64
363935089114401,05/03/2011 15:59,304.65
363935089114401,05/03/2011 16:00,304.64
363935089114401,05/03/2011 16:01,304.65
363935089114401,05/03/2011 16:02,304.66
363935089114401,05/03/2011 16:03,304.66
363935089114401,05/03/2011 16:04,304.65
363935089114401,05/03/2011 16:05,304.68
363935089114401,05/03/2011 16:06,304.69
363935089114401,05/03/2011 16:07,304.7
363935089114401,05/03/2011 16:08,304.68
363935089114401,05/03/2011 16:09,304.71
363935089114401,05/03/2011 16:10,304.68
363935089114401,05/03/2011 16:11,304.69
363935089114401,05/03/2011 16:12,304.71
363935089114401,05/03/2011 16:13,304.69
363935089114401,05/03/2011 16:14,304.71
363935089114401,05/03/2011 16:15,304.74
363935089114401,05/03/2011 16:16,304.74
363935089114401,05/03/2011 16:17,304.72
363935089114401,05/03/2011 16:18,304.71
363935089114401,05/03/2011 16:19,304.75
363935089114401,05/03/2011 16:20,304.77
363935089114401,05/03/2011 16:21,304.77
363935089114401,05/03/2011 16:22,304.77
363935089114401,05/03/2011 16:23,304.73
363935089114401,05/03/2011 16:24,304.73
363935089114401,05/03/2011 16:25,304.8
363935089114401,05/03/2011 16:26,304.77
363935089114401,05/03/2011 16:27,304.77
363935089114401,05/03/2011 16:28,304.79
363935089114401,05/03/2011 16:29,304.79
363935089114401,05/03/2011 16:30,304.8
363935089114401,05/03/2011 16:31,304.8
363935089114401,05/03/2011 16:32,304.8
363935089114401,05/03/2011 16:33,304.79
363935089114401,05/03/2011 16:34,304.83
363935089114401,05/03/2011 16:35,304.83
363935089114401,05/03/2011 16:36,304.86
363935089114401,05/03/2011 16:37,304.83
363935089114401,05/03/2011 16:38,304.83
363935089114401,05/03/2011 16:39,304.86
363935089114401,05/03/2011 16:40,304.84
363935089114401,05/03/2011 16:41,304.88
363935089114401,05/03/2011 16:42,304.88
363935089114401,05/03/2011 16:43,304.87
363935089114401,05/03/2011 16:44,304.88
363935089114401,05/03/2011 16:45,304.88
363935089114401,05/03/2011 16:46,304.89
363935089114401,05/03/2011 16:47,304.88
363935089114401,05/03/2011 16:48,304.91
363935089114401,05/03/2011 16:49,304.92
363935089114401,05/03/2011 16:50,304.91
363935089114401,05/03/2011 16:51,304.92
363935089114401,05/03/2011 16:52,304.9
363935089114401,05/03/2011 16:53,304.92
363935089114401,05/03/2011 16:54,304.92
363935089114401,05/03/2011 16:55,304.93
363935089114401,05/03/2011 16:56,304.93
363935089114401,05/03/2011 16:57,304.94
363935089114401,05/03/2011 16:58,304.94
363935089114401,05/03/2011 16:59,304.97
363935089114401,05/03/2011 17:00,304.97
363935089114401,05/03/2011 17:01,304.98
363935089114401,05/03/2011 17:02,304.99
363935089114401,05/03/2011 17:03,304.98
363935089114401,05/03/2011 17:04,304.99
363935089114401,05/03/2011 17:05,305
363935089114401,05/03/2011 17:06,305
363935089114401,05/03/2011 17:07,304.99
363935089114401,05/03/2011 17:08,305.02
363935089114401,05/03/2011 17:09,305.01
363935089114401,05/03/2011 17:10,305.04
363935089114401,05/03/2011 17:11,305.02
363935089114401,05/03/2011 17:12,305.03
363935089114401,05/03/2011 17:13,305.05
363935089114401,05/03/2011 17:14,305.04
363935089114401,05/03/2011 17:15,305.04
363935089114401,05/03/2011 17:16,305.06
363935089114401,05/03/2011 17:17,305.05
363935089114401,05/03/2011 17:18,305.06
363935089114401,05/03/2011 17:19,305.07
363935089114401,05/03/2011 17:20,305.06
363935089114401,05/03/2011 17:21,305.07
363935089114401,05/03/2011 17:22,305.07
363935089114401,05/03/2011 17:23,305.07
363935089114401,05/03/2011 17:24,305.08
363935089114401,05/03/2011 17:25,305.1
363935089114401,05/03/2011 17:26,305.1
363935089114401,05/03/2011 17:27,305.12
363935089114401,05/03/2011 17:28,305.1
363935089114401,05/03/2011 17:29,305.12
363935089114401,05/03/2011 17:30,305.12
363935089114401,05/03/2011 17:31,305.11
363935089114401,05/03/2011 17:32,305.13
363935089114401,05/03/2011 17:33,305.15
363935089114401,05/03/2011 17:34,305.15
363935089114401,05/03/2011 17:35,305.15
363935089114401,05/03/2011 17:36,305.15
363935089114401,05/03/2011 17:37,305.17
363935089114401,05/03/2011 17:38,305.17
363935089114401,05/03/2011 17:39,305.18
363935089114401,05/03/2011 17:40,305.18
363935089114401,05/03/2011 17:41,305.19
363935089114401,05/03/2011 17:42,305.19
363935089114401,05/03/2011 17:43,305.18
363935089114401,05/03/2011 17:44,305.19
363935089114401,05/03/2011 17:45,305.19
363935089114401,05/03/2011 17:46,305.2
363935089114401,05/03/2011 17:47,305.2
363935089114401,05/03/2011 17:48,305.21
363935089114401,05/03/2011 17:49,305.21
363935089114401,05/03/2011 17:50,305.21
363935089114401,05/03/2011 17:51,305.22
363935089114401,05/03/2011 17:52,305.23
363935089114401,05/03/2011 17:53,305.22
363935089114401,05/03/2011 17:54,305.24
363935089114401,05/03/2011 17:55,305.25
363935089114401,05/03/2011 17:56,305.24
363935089114401,05/03/2011 17:57,305.24
363935089114401,05/03/2011 17:58,305.24
363935089114401,05/03/2011 17:59,305.25
363935089114401,05/03/2011 18:00,305.26
363935089114401,05/03/2011 18:01,305.26
363935089114401,05/03/2011 18:02,305.26
363935089114401,05/03/2011 18:03,305.27
363935089114401,05/03/2011 18:04,305.27
363935089114401,05/03/2011 18:05,305.28
363935089114401,05/03/2011 18:06,305.3
363935089114401,05/03/2011 18:07,305.3
363935089114401,05/03/2011 18:08,305.31
363935089114401,05/03/2011 18:09,305.31
363935089114401,05/03/2011 18:10,305.33
363935089114401,05/03/2011 18:11,305.33
363935089114401,05/03/2011 18:12,305.31
363935089114401,05/03/2011 18:13,305.33
363935089114401,05/03/2011 18:14,305.33
363935089114401,05/03/2011 18:15,305.35
363935089114401,05/03/2011 18:16,305.34
363935089114401,05/03/2011 18:17,305.35
363935089114401,05/03/2011 18:18,305.35
363935089114401,05/03/2011 18:19,305.36
363935089114401,05/03/2011 18:20,305.36
363935089114401,05/03/2011 18:21,305.37
363935089114401,05/03/2011 18:22,305.37
363935089114401,05/03/2011 18:23,305.37
363935089114401,05/03/2011 18:24,305.38
363935089114401,05/03/2011 18:25,305.38
363935089114401,05/03/2011 18:26,305.39
363935089114401,05/03/2011 18:27,305.4
363935089114401,05/03/2011 18:28,305.38
363935089114401,05/03/2011 18:29,305.4
363935089114401,05/03/2011 18:30,305.4
363935089114401,05/03/2011 18:31,305.39
363935089114401,05/03/2011 18:32,305.41
363935089114401,05/03/2011 18:33,305.41
363935089114401,05/03/2011 18:34,305.43
363935089114401,05/03/2011 18:35,305.42
363935089114401,05/03/2011 18:36,305.42
363935089114401,05/03/2011 18:37,305.44
363935089114401,05/03/2011 18:38,305.44
363935089114401,05/03/2011 18:39,305.44
363935089114401,05/03/2011 18:40,305.45
363935089114401,05/03/2011 18:41,305.45
363935089114401,05/03/2011 18:42,305.45
363935089114401,05/03/2011 18:43,305.45
363935089114401,05/03/2011 18:44,305.47
363935089114401,05/03/2011 18:45,305.46
363935089114401,05/03/2011 18:46,305.47
363935089114401,05/03/2011 18:47,305.47
363935089114401,05/03/2011 18:48,305.47
363935089114401,05/03/2011 18:49,305.49
363935089114401,05/03/2011 18:50,305.48
363935089114401,05/03/2011 18:51,305.49
363935089114401,05/03/2011 18:52,305.49
363935089114401,05/03/2011 18:53,305.5
363935089114401,05/03/2011 18:54,305.51
363935089114401,05/03/2011 18:55,305.52
363935089114401,05/03/2011 18:56,305.51
363935089114401,05/03/2011 18:57,305.53
363935089114401,05/03/2011 18:58,305.53
363935089114401,05/03/2011 18:59,305.54
363935089114401,05/03/2011 19:00,305.54
363935089114401,05/03/2011 19:01,305.55
363935089114401,05/03/2011 19:02,305.56
363935089114401,05/03/2011 19:03,305.56
363935089114401,05/03/2011 19:04,305.56
363935089114401,05/03/2011 19:05,305.58
363935089114401,05/03/2011 19:06,305.57
363935089114401,05/03/2011 19:07,305.58
363935089114401,05/03/2011 19:08,305.58
363935089114401,05/03/2011 19:09,305.59
363935089114401,05/03/2011 19:10,305.59
363935089114401,05/03/2011 19:11,305.59
363935089114401,05/03/2011 19:12,305.61
363935089114401,05/03/2011 19:13,305.6
363935089114401,05/03/2011 19:14,305.61
363935089114401,05/03/2011 19:15,305.62
363935089114401,05/03/2011 19:16,305.62
363935089114401,05/03/2011 19:17,305.62
363935089114401,05/03/2011 19:18,305.63
363935089114401,05/03/2011 19:19,305.63
363935089114401,05/03/2011 19:20,305.63
363935089114401,05/03/2011 19:21,305.64
363935089114401,05/03/2011 19:22,305.64
363935089114401,05/03/2011 19:23,305.65
363935089114401,05/03/2011 19:24,305.64
363935089114401,05/03/2011 19:25,305.66
363935089114401,05/03/2011 19:26,305.66
363935089114401,05/03/2011 19:27,305.66
363935089114401,05/03/2011 19:28,305.66
363935089114401,05/03/2011 19:29,305.67
363935089114401,05/03/2011 19:30,305.69
363935089114401,05/03/2011 19:31,305.69
363935089114401,05/03/2011 19:32,305.69
363935089114401,05/03/2011 19:33,305.7
363935089114401,05/03/2011 19:34,305.69
363935089114401,05/03/2011 19:35,305.7
363935089114401,05/03/2011 19:36,305.72
363935089114401,05/03/2011 19:37,305.72
363935089114401,05/03/2011 19:38,305.72
363935089114401,05/03/2011 19:39,305.71
363935089114401,05/03/2011 19:40,305.71
363935089114401,05/03/2011 19:41,305.73
363935089114401,05/03/2011 19:42,305.73
363935089114401,05/03/2011 19:43,305.75
363935089114401,05/03/2011 19:44,305.75
363935089114401,05/03/2011 19:45,305.74
363935089114401,05/03/2011 19:46,305.75
363935089114401,05/03/2011 19:47,305.76
363935089114401,05/03/2011 19:48,305.76
363935089114401,05/03/2011 19:49,305.76
363935089114401,05/03/2011 19:50,305.77
363935089114401,05/03/2011 19:51,305.77
363935089114401,05/03/2011 19:52,305.77
363935089114401,05/03/2011 19:53,305.77
363935089114401,05/03/2011 19:54,305.77
363935089114401,05/03/2011 19:55,305.77
363935089114401,05/03/2011 19:56,305.8
363935089114401,05/03/2011 19:57,305.8
363935089114401,05/03/2011 19:58,305.8
363935089114401,05/03/2011 19:59,305.81
363935089114401,05/03/2011 20:00,305.82
363935089114401,05/03/2011 20:01,305.82
363935089114401,05/03/2011 20:02,305.82
363935089114401,05/03/2011 20:03,305.83
363935089114401,05/03/2011 20:04,305.83
363935089114401,05/03/2011 20:05,305.83
363935089114401,05/03/2011 20:06,305.82
363935089114401,05/03/2011 20:07,305.84
363935089114401,05/03/2011 20:08,305.84
363935089114401,05/03/2011 20:09,305.84
363935089114401,05/03/2011 20:10,305.85
363935089114401,05/03/2011 20:11,305.86
363935089114401,05/03/2011 20:12,305.87
363935089114401,05/03/2011 20:13,305.86
363935089114401,05/03/2011 20:14,305.87
363935089114401,05/03/2011 20:15,305.87
363935089114401,05/03/2011 20:16,305.87
363935089114401,05/03/2011 20:17,305.88
363935089114401,05/03/2011 20:18,305.89
363935089114401,05/03/2011 20:19,305.89
363935089114401,05/03/2011 20:20,305.89
363935089114401,05/03/2011 20:21,305.9
363935089114401,05/03/2011 20:22,305.9
363935089114401,05/03/2011 20:23,305.92
363935089114401,05/03/2011 20:24,305.9
363935089114401,05/03/2011 20:25,305.92
363935089114401,05/03/2011 20:26,305.92
363935089114401,05/03/2011 20:27,305.91
363935089114401,05/03/2011 20:28,305.93
363935089114401,05/03/2011 20:29,305.93
363935089114401,05/03/2011 20:30,305.94
363935089114401,05/03/2011 20:31,305.94
363935089114401,05/03/2011 20:32,305.95
363935089114401,05/03/2011 20:33,305.95
363935089114401,05/03/2011 20:34,305.95
363935089114401,05/03/2011 20:35,305.95
363935089114401,05/03/2011 20:36,305.96
363935089114401,05/03/2011 20:37,305.96
363935089114401,05/03/2011 20:38,305.97
363935089114401,05/03/2011 20:39,305.97
363935089114401,05/03/2011 20:40,305.99
363935089114401,05/03/2011 20:41,305.98
363935089114401,05/03/2011 20:42,305.98
363935089114401,05/03/2011 20:43,305.98
363935089114401,05/03/2011 20:44,305.99
363935089114401,05/03/2011 20:45,306
363935089114401,05/03/2011 20:46,306
363935089114401,05/03/2011 20:47,306.01
363935089114401,05/03/2011 20:48,306.01
363935089114401,05/03/2011 20:49,306.01
363935089114401,05/03/2011 20:50,306.02
363935089114401,05/03/2011 20:51,306.02
363935089114401,05/03/2011 20:52,306.03
363935089114401,05/03/2011 20:53,306.04
363935089114401,05/03/2011 20:54,306.03
363935089114401,05/03/2011 20:55,306.05
363935089114401,05/03/2011 20:56,306.05
363935089114401,05/03/2011 20:57,306.06
363935089114401,05/03/2011 20:58,306.05
363935089114401,05/03/2011 20:59,306.05
363935089114401,05/03/2011 21:00,306.06
363935089114401,05/03/2011 21:01,306.06
363935089114401,05/03/2011 21:02,306.06
363935089114401,05/03/2011 21:03,306.09
363935089114401,05/03/2011 21:04,306.07
363935089114401,05/03/2011 21:05,306.08
363935089114401,05/03/2011 21:06,306.08
363935089114401,05/03/2011 21:07,306.09
363935089114401,05/03/2011 21:08,306.09
363935089114401,05/03/2011 21:09,306.09
363935089114401,05/03/2011 21:10,306.1
363935089114401,05/03/2011 21:11,306.11
363935089114401,05/03/2011 21:12,306.11
363935089114401,05/03/2011 21:13,306.11
363935089114401,05/03/2011 21:14,306.11
363935089114401,05/03/2011 21:15,306.12
363935089114401,05/03/2011 21:16,306.12
363935089114401,05/03/2011 21:17,306.13
363935089114401,05/03/2011 21:18,306.14
363935089114401,05/03/2011 21:19,306.13
363935089114401,05/03/2011 21:20,306.15
363935089114401,05/03/2011 21:21,306.15
363935089114401,05/03/2011 21:22,306.16
363935089114401,05/03/2011 21:23,306.14
363935089114401,05/03/2011 21:24,306.15
363935089114401,05/03/2011 21:25,306.16
363935089114401,05/03/2011 21:26,306.16
363935089114401,05/03/2011 21:27,306.18
363935089114401,05/03/2011 21:28,306.18
363935089114401,05/03/2011 21:29,306.18
363935089114401,05/03/2011 21:30,306.19
363935089114401,05/03/2011 21:31,306.19
363935089114401,05/03/2011 21:32,306.19
363935089114401,05/03/2011 21:33,306.19
363935089114401,05/03/2011 21:34,306.19
363935089114401,05/03/2011 21:35,306.21
363935089114401,05/03/2011 21:36,306.21
363935089114401,05/03/2011 21:37,306.21
363935089114401,05/03/2011 21:38,306.2
363935089114401,05/03/2011 21:39,306.21
363935089114401,05/03/2011 21:40,306.21
363935089114401,05/03/2011 21:41,306.22
363935089114401,05/03/2011 21:42,306.24
363935089114401,05/03/2011 21:43,306.23
363935089114401,05/03/2011 21:44,306.23
363935089114401,05/03/2011 21:45,306.23
363935089114401,05/03/2011 21:46,306.23
363935089114401,05/03/2011 21:47,306.24
363935089114401,05/03/2011 21:48,306.24
363935089114401,05/03/2011 21:49,306.25
363935089114401,05/03/2011 21:50,306.26
363935089114401,05/03/2011 21:51,306.26
363935089114401,05/03/2011 21:52,306.27
363935089114401,05/03/2011 21:53,306.27
363935089114401,05/03/2011 21:54,306.27
363935089114401,05/03/2011 21:55,306.28
363935089114401,05/03/2011 21:56,306.27
363935089114401,05/03/2011 21:57,306.29
363935089114401,05/03/2011 21:58,306.28
363935089114401,05/03/2011 21:59,306.28
363935089114401,05/03/2011 22:00,306.3
363935089114401,05/03/2011 22:01,306.3
363935089114401,05/03/2011 22:02,306.3
363935089114401,05/03/2011 22:03,306.3
363935089114401,05/03/2011 22:04,306.3
363935089114401,05/03/2011 22:05,306.3
363935089114401,05/03/2011 22:06,306.32
363935089114401,05/03/2011 22:07,306.32
363935089114401,05/03/2011 22:08,306.31
363935089114401,05/03/2011 22:09,306.32
363935089114401,05/03/2011 22:10,306.33
363935089114401,05/03/2011 22:11,306.33
363935089114401,05/03/2011 22:12,306.33
363935089114401,05/03/2011 22:13,306.34
363935089114401,05/03/2011 22:14,306.34
363935089114401,05/03/2011 22:15,306.34
363935089114401,05/03/2011 22:16,306.35
363935089114401,05/03/2011 22:17,306.35
363935089114401,05/03/2011 22:18,306.35